Regional Weather Roundup
Issued by NWS Burlington, VT

Current Version | Previous Version | Text Only | Print | Product List | Glossary Off
Versions: 1 2 3 4 5 6 7 8 9 10 11 12 13 14 15 16 17 18 19 20 21 22 23 24 25 26 27 28 29 30 31 32 33 34 35 36 37 38 39 40 41 42 43 44 45 46 47 48 49 50

000
ASUS41 KBTV 261330
RWRBTV
VERMONT REGIONAL WEATHER ROUNDUP
NATIONAL WEATHER SERVICE BURLINGTON VT
900 AM EDT TUE JUL 26 2016

NOTE: "FAIR" INDICATES FEW OR NO CLOUDS BELOW 12,000 FEET WITH NO
SIGNIFICANT WEATHER AND/OR OBSTRUCTIONS TO VISIBILITY.

* THESE REPORTS ARE NOT UNDER NWS QUALITY CONTROL AND/OR DO NOT
  REPORT WEATHER SUCH AS PRECIPITATION AND FOG.

VTZ001>019-261400-
_____VERMONT_____


CITY           SKY/WX    TMP DP  RH WIND       PRES   REMARKS
BURLINGTON     PTSUNNY   75  61  61 W7        29.83R
MONTPELIER     PTSUNNY   73  62  68 NW12      29.89R
MORRISVILLE    CLOUDY    72  63  73 S5        29.85R
ST. JOHNSBURY*   N/A     77  62  59 MISG      29.81R
LYNDONVILLE*   CLOUDY    70  62  77 SW7G16    29.86R
MIDDLEBURY*    PTSUNNY   75  64  69 CALM      29.86R
RUTLAND*       PTSUNNY   73  63  68 SW7       29.87R
SPRINGFIELD    FAIR      78  61  55 W10G16    29.85R
HIGHGATE*      CLOUDY    73  65  75 CALM      29.82R
NEWPORT*       CLOUDY    69  62  77 CALM      29.84R
BENNINGTON     FAIR      75  64  68 W8G17     29.89R
GALLUP MILLS*    N/A     72 N/A N/A MISG        N/A
UNION VILLAGE*   N/A     77 N/A N/A MISG        N/A
MT. MANSFIELD*   N/A     57 N/A N/A NW23        N/A

_____LAKE CHAMPLAIN_____


CITY           SKY/WX    TMP DP  RH WIND       PRES   REMARKS
BURTON ISLAND*   N/A     72  64  78 SW3         N/A
COLCHESTER RF*   N/A     73  64  73 W15         N/A
DIAMOND ISL*     N/A     75  63  64 W12         N/A

$$

NYZ007-026>031-035-052-083-087-261400-
_____NORTHERN NEW YORK_____


CITY           SKY/WX    TMP DP  RH WIND       PRES   REMARKS
PLATTSBURGH    SUNNY     78  64  61 VRB3      29.81S
SARANAC LAKE   MOSUNNY   69  60  73 VRB6      29.90R
MASSENA        PTSUNNY   73  63  70 NW12      29.87S
OGDENSBURG*    SUNNY     75  63  64 NW12      29.88S
POTSDAM*       MOSUNNY   73  66  78 NW9       29.88S
STARK FALLS*     N/A     88 N/A N/A W6          N/A
WATERTOWN      MOSUNNY   73  61  65 SW6       29.91R
FT DRUM        SUNNY     72  63  73 W9        29.91S
ALBANY         PTSUNNY   76  64  66 W12       29.89R
GLENS FALLS    SUNNY     77  62  59 W7        29.87R

$$
NHZ002-005-011-261400-
_____NEW HAMPSHIRE_____


CITY           SKY/WX    TMP DP  RH WIND       PRES   REMARKS
LEBANON        SUNNY     79  64  60 NW7       29.83S
KEENE          MOSUNNY   81  63  54 SW12      29.85S
MT WASHINGTON  DRZL/FOG  52  52 100 NW36G41     N/A  VSB 0
PLYMOUTH       FAIR      77  64  63 NW3       29.81S
WHITEFIELD     PTSUNNY   73  65  75 SW3       29.83S

$$

_____REGIONAL QUEBEC LOCATIONS_____


CITY           SKY/WX    TMP DP  RH WIND       PRES   REMARKS
MONTREAL       PTSUNNY   73  66  78 W7        29.80R
QUEBEC CITY    PTSUNNY   70  68  94 SW12      29.73
SHERBROOKE     CLOUDY    70  66  88 W10       29.79S

_____REGIONAL ONTARIO LOCATIONS_____


CITY           SKY/WX    TMP DP  RH WIND       PRES   REMARKS
OTTAWA         MOSUNNY   73  63  68 W13G18    29.87R

______KEY______
VSB  - VISIBILITY IN MILES
WCI  - WIND CHILL INDEX
HX   - HEAT INDEX
$$
NNNN




USA.gov is the U.S. government's official web portal to all federal, state and local government web resources and services.